Weather in Merauke

Indonesia     8°30′06″S   140°25′29″E
temp.,
°C
wind,
m/s
gust,
m/s
humid.,
%
clouds,
%
prec.,
mm/h
press.,
hPa
HPBL,
m
25 january, mon
mon2500:00+25nnw2594100 0.1 1006234
03:00+24nnw3795100 0.1 1005311
06:00+24nnw3996100 0.0 1007390
09:00+29nw5874100 0.0 10081031
12:00+31wnw586398 0.6 10051361
15:00+30wnw587396 3.3 10031216
18:00+27wnw3786100 1.8 1004331
21:00+26nw3591100 2.4 1006237
26 january, tue
tue2600:00+24nnw2495100 1.1 1005210
03:00+24nnw3895100 1.1 1004297
06:00+24nnw389692 0.0 1005308
09:00+29nw487690 0.0 1006865
12:00+32wnw5858100 0.0 10031381
15:00+30wnw4774100 2.1 10011034
18:00+26wnw3789100 3.4 1002234
21:00+26nw2491100 3.8 1004181
27 january, wed
wed2700:00+25nw3892100 0.0 1003344
03:00+24nnw3894100 0.0 1002362
06:00+24nnw3994100 0.0 1004368
09:00+29nw5973100 0.0 10051130
12:00+27wnw4988100 5.1 1003765
15:00+25wnw51193100 14.9 1001788
18:00+26wnw4991100 3.2 1002443
21:00+26wnw51192100 4.4 1004711
28 january, thu
thu2800:00+25wnw51291100 1.3 1003797
03:00+25nnw41194100 2.7 1002761
06:00+25nw51293100 2.0 1004801
09:00+26nw51288100 4.7 10051074
12:00+26nw61190100 2.9 10031054
15:00+26wnw51091100 6.3 1002850
18:00+25wnw51089100 0.5 1004620
21:00+26nw41088100 0.6 1005555
29 january, fri
fri2900:00+24nw31095100 2.3 1004557
03:00+25nw51194100 5.2 1003659
06:00+25nw41293100 3.4 1004844
09:00+26nw51189100 5.4 1006980
12:00+25wnw61294100 5.4 1004866
15:00+25wnw61390100 9.3 1002997
18:00+26wnw51188100 0.3 1003882
21:00+26nw51187100 0.8 1005919